Weather History for KABR - September, 2013

Change the Weather History Date:

Friday, September 13, 2013

  Actual Average Record
Temperature  
Mean Temperature 58 °F 60 °F  
Max Temperature 78 °F 73 °F 97 °F (1927)
Min Temperature 38 °F 47 °F 26 °F (1902)
Degree Days  
Heating Degree Days 7 6  
Month to date heating degree days 19 60  
Since 1 July heating degree days 70 111  
Cooling Degree Days 0 1  
Month to date cooling degree days 64 29  
Year to date cooling degree days 553 512  
Growing Degree Days 8 (Base 50)    
Moisture  
Dew Point 44 °F    
Average Humidity 67    
Maximum Humidity 100    
Minimum Humidity 33    
Precipitation  
Precipitation 0.00 in 0.07 in 2.00 in (1896)
Month to date precipitation 0.41 0.98  
Year to date precipitation 14.17 17.27  
Sea Level Pressure  
Sea Level Pressure 30.16 in    
Wind  
Wind Speed 8 mph (SSE)    
Max Wind Speed 18 mph    
Max Gust Speed 23 mph    
Visibility 7 miles    
Events Fog    
T = Trace of Precipitation, MM = Missing Value Source: NWS Daily Summary

Daily Weather History Graph

Daily Weather History Graph

Search for Another Location

Airport or City:

Trip Planner

Search our weather history database for the weather conditions in past years. The results will help you decide how hot, cold, wet, or windy it might be!

Date:

Astronomy

Sep. 13, 2013 Rise Set
Actual Time 7:10 AM CDT 7:48 PM CDT
Civil Twilight 6:40 AM CDT 8:17 PM CDT
Nautical Twilight 6:04 AM CDT 8:53 PM CDT
Astronomical Twilight 5:27 AM CDT 9:29 PM CDT
Moon 3:51 PM CDT (9/13) 12:28 AM CDT (9/13)
Length of Visible Light 13h 37m
Length of Day
12h 37m
First Quarter, 61% of the Moon is Illuminated
Sep 13
First Quarter
Sep 19
Full
Sep 26
Last Quarter
Oct 4
New
Oct 11
First Quarter

Hourly Weather History & Observations

Time (CDT) Temp. Windchill Dew Point Humidity Pressure Visibility Wind Dir Wind Speed Gust Speed Precip Events Conditions
12:53 AM 50.0 °F - 46.0 °F 86% 30.24 in 10.0 mi Calm Calm - N/A   Clear
1:53 AM 46.9 °F - 45.0 °F 93% 30.24 in 10.0 mi Calm Calm - N/A   Clear
2:53 AM 45.0 °F 43.5 °F 44.1 °F 97% 30.24 in 10.0 mi NE 3.5 mph - N/A   Clear
3:53 AM 42.1 °F - 39.9 °F 92% 30.24 in 10.0 mi Calm Calm - N/A   Clear
4:53 AM 43.0 °F - 41.0 °F 93% 30.24 in 10.0 mi Calm Calm - N/A   Clear
5:38 AM 41.0 °F - 39.2 °F 93% 30.23 in 1.8 mi Calm Calm - N/A   Clear
5:41 AM 41.0 °F - 39.2 °F 93% 30.23 in 1.0 mi Calm Calm - N/A   Mist
5:49 AM 41.0 °F - 39.2 °F 93% 30.23 in 0.5 mi Calm Calm - N/A Fog Fog
5:53 AM 39.9 °F - 39.9 °F 100% 30.24 in 0.2 mi Calm Calm - N/A Fog Fog
6:02 AM 41.0 °F - 41.0 °F 100% 30.23 in 0.5 mi Calm Calm - N/A Fog Fog
6:10 AM 39.2 °F - 39.2 °F 100% 30.23 in 0.2 mi Calm Calm - N/A Fog Fog
6:18 AM 41.0 °F - 41.0 °F 100% 30.23 in 0.5 mi Calm Calm - N/A Fog Fog
6:31 AM 41.0 °F - 41.0 °F 100% 30.23 in 1.0 mi Calm Calm - N/A   Mist
6:45 AM 39.2 °F - 39.2 °F 100% 30.23 in 2.0 mi Calm Calm - N/A   Scattered Clouds
6:53 AM 39.0 °F - 39.0 °F 100% 30.24 in 10.0 mi Calm Calm - N/A   Scattered Clouds
7:47 AM 42.8 °F 41.1 °F 41.0 °F 93% 30.22 in 2.5 mi SE 3.5 mph - N/A   Mostly Cloudy
7:53 AM 42.1 °F 40.2 °F 42.1 °F 100% 30.23 in 2.0 mi SE 3.5 mph - N/A   Mostly Cloudy
8:05 AM 44.6 °F - 44.6 °F 100% 30.22 in 8.0 mi Calm Calm - N/A   Scattered Clouds
8:53 AM 52.0 °F - 48.9 °F 89% 30.23 in 10.0 mi SSE 5.8 mph - N/A   Clear
9:53 AM 60.1 °F - 48.9 °F 67% 30.21 in 10.0 mi South 10.4 mph - N/A   Clear
10:53 AM 64.9 °F - 48.9 °F 56% 30.20 in 10.0 mi South 13.8 mph - N/A   Clear
11:53 AM 69.1 °F - 48.0 °F 47% 30.17 in 10.0 mi South 13.8 mph 20.7 mph N/A   Clear
12:53 PM 73.0 °F - 48.9 °F 42% 30.14 in 10.0 mi South 12.7 mph 19.6 mph N/A   Clear
1:53 PM 75.0 °F - 48.0 °F 38% 30.12 in 10.0 mi SSE 13.8 mph 19.6 mph N/A   Clear
2:53 PM 75.9 °F - 46.0 °F 35% 30.09 in 10.0 mi South 11.5 mph - N/A   Clear
3:53 PM 77.0 °F - 46.9 °F 34% 30.06 in 10.0 mi SSE 10.4 mph 17.3 mph N/A   Clear
4:53 PM 75.9 °F - 45.0 °F 33% 30.04 in 10.0 mi SSE 9.2 mph - N/A   Clear
5:53 PM 75.0 °F - 46.0 °F 36% 30.02 in 10.0 mi South 13.8 mph - N/A   Clear
6:53 PM 70.0 °F - 48.0 °F 46% 30.01 in 10.0 mi SSE 6.9 mph - N/A   Clear
7:53 PM 61.0 °F - 48.9 °F 64% 30.00 in 10.0 mi SE 6.9 mph - N/A   Clear
8:53 PM 57.9 °F - 48.0 °F 70% 29.99 in 10.0 mi SSE 5.8 mph - N/A   Clear
9:53 PM 57.9 °F - 48.0 °F 70% 29.98 in 10.0 mi SSE 8.1 mph - N/A   Clear
10:53 PM 57.0 °F - 48.0 °F 72% 29.97 in 10.0 mi SSE 10.4 mph - N/A   Clear
11:53 PM 55.9 °F - 48.0 °F 75% 29.96 in 10.0 mi South 9.2 mph - N/A   Clear